timestamp,surface_pressure_avg,surface_temp_avg,battery_voltage,lat,long
2019-02-25 00:00:00+00:00,279.2481,-0.5,12.89,47.84626,-54.09684
2019-02-25 00:10:00+00:00,282.9413,-0.5,12.81,47.84626,-54.09684
2019-02-25 00:20:00+00:00,281.0365,-0.5,12.89,47.84626,-54.09684
2019-02-25 00:30:00+00:00,285.3698,-0.5,12.89,47.84626,-54.09684
2019-02-25 00:40:00+00:00,290.4113,-0.5,12.97,47.84626,-54.09684
2019-02-25 00:50:00+00:00,292.5614,-0.5,12.97,47.84626,-54.09684
2019-02-25 01:00:00+00:00,297.7197,-0.5,12.89,47.84626,-54.09684
2019-02-25 01:10:00+00:00,306.6114,-0.5,12.81,47.84626,-54.09684
2019-02-25 01:20:00+00:00,313.6947,-0.5,12.89,47.84626,-54.09684
2019-02-25 01:30:00+00:00,320.3346,-0.6,12.89,47.84626,-54.09684
2019-02-25 01:40:00+00:00,327.6363,-0.63,12.89,47.84626,-54.09684
2019-02-25 01:50:00+00:00,336.6946,-0.7,12.89,47.84626,-54.09684
2019-02-25 02:00:00+00:00,344.0546,-0.7,12.81,47.84626,-54.09684
2019-02-25 02:10:00+00:00,354.1629,-0.7,12.73,47.84626,-54.09684
2019-02-25 02:20:00+00:00,353.4012,-0.7,12.81,47.84626,-54.09684
2019-02-25 02:30:00+00:00,351.973,-0.7,12.81,47.84626,-54.09684
2019-02-25 02:40:00+00:00,355.7946,-0.7,12.89,47.84626,-54.09684
2019-02-25 02:50:00+00:00,361.998,-0.66,12.89,47.84626,-54.09684
2019-02-25 03:00:00+00:00,361.3829,-0.67,12.81,47.84626,-54.09684
2019-02-25 03:10:00+00:00,361.2629,-0.7,12.73,47.84626,-54.09684
2019-02-25 03:20:00+00:00,366.1796,-0.7,12.81,47.84626,-54.09684
2019-02-25 03:30:00+00:00,369.028,-0.7,12.81,47.84626,-54.09684
2019-02-25 03:40:00+00:00,369.8062,-0.7,12.81,47.84626,-54.09684
2019-02-25 03:50:00+00:00,372.8312,-0.69,12.81,47.84626,-54.09684
2019-02-25 04:00:00+00:00,376.5031,-0.7,12.73,47.84626,-54.09684
2019-02-25 04:10:00+00:00,378.1196,-0.7,12.65,47.84626,-54.09684
2019-02-25 04:20:00+00:00,375.8779,-0.7,12.73,47.84626,-54.09684
2019-02-25 04:30:00+00:00,373.963,-0.7,12.73,47.84626,-54.09684
2019-02-25 04:40:00+00:00,373.403,-0.7,12.81,47.84626,-54.09684
2019-02-25 04:50:00+00:00,375.588,-0.7,12.81,47.84626,-54.09684
2019-02-25 05:00:00+00:00,373.3862,-0.7,12.73,47.84626,-54.09684
2019-02-25 05:10:00+00:00,367.423,-0.68,12.65,47.84626,-54.09684
2019-02-25 05:20:00+00:00,360.6262,-0.7,12.73,47.84626,-54.09684
2019-02-25 05:30:00+00:00,352.8096,-0.7,12.73,47.84626,-54.09684
2019-02-25 05:40:00+00:00,344.363,-0.9,12.73,47.84626,-54.09684
2019-02-25 05:50:00+00:00,335.9263,-1.0,12.73,47.84626,-54.09684
2019-02-25 06:00:00+00:00,329.1063,-1.1,12.65,47.84626,-54.09684
2019-02-25 06:10:00+00:00,325.0464,-1.1,12.57,47.84626,-54.09684
2019-02-25 06:20:00+00:00,324.5847,-1.1,12.65,47.84626,-54.09684
2019-02-25 06:30:00+00:00,323.2346,-1.1,12.65,47.84626,-54.09684
2019-02-25 06:40:00+00:00,315.198,-1.11,12.73,47.84626,-54.09684
2019-02-25 06:50:00+00:00,305.9763,-1.11,12.73,47.84626,-54.09684
2019-02-25 07:00:00+00:00,297.5314,-1.11,12.65,47.84626,-54.09684
2019-02-25 07:10:00+00:00,287.8597,-1.1,12.57,47.84626,-54.09684
2019-02-25 07:20:00+00:00,271.8414,-1.12,12.65,47.84626,-54.09684
2019-02-25 07:30:00+00:00,256.3798,-1.1,12.65,47.84626,-54.09684
2019-02-25 07:40:00+00:00,256.9414,-1.1,12.65,47.84626,-54.09684
2019-02-25 07:50:00+00:00,257.5548,-1.1,12.73,47.84626,-54.09684
2019-02-25 08:00:00+00:00,246.9648,-1.1,12.57,47.84626,-54.09684
2019-02-25 08:10:00+00:00,239.6564,-1.1,12.57,47.84626,-54.09684
2019-02-25 08:20:00+00:00,242.9098,-1.07,12.65,47.84626,-54.09684
2019-02-25 08:30:00+00:00,232.1047,-1.01,12.65,47.84626,-54.09684
2019-02-25 08:40:00+00:00,216.1698,-1.1,12.65,47.84626,-54.09684
2019-02-25 08:50:00+00:00,216.3081,-1.1,12.65,47.84626,-54.09684
2019-02-25 09:00:00+00:00,216.8348,-1.04,12.57,47.84626,-54.09684
2019-02-25 09:10:00+00:00,204.8415,-1.1,12.57,47.84626,-54.09684
2019-02-25 09:20:00+00:00,198.5581,-1.1,12.65,47.84626,-54.09684
2019-02-25 09:30:00+00:00,208.2164,-1.07,12.65,47.84626,-54.09684
2019-02-25 09:40:00+00:00,208.0231,-1.0,12.65,47.84626,-54.09684
2019-02-25 09:50:00+00:00,206.5531,-1.08,12.65,47.84626,-54.09684
2019-02-25 10:00:00+00:00,213.2148,-1.1,12.57,47.84626,-54.09684
2019-02-25 10:10:00+00:00,219.0247,-1.1,12.57,47.84626,-54.09684
2019-02-25 10:20:00+00:00,219.7865,-1.1,12.65,47.84626,-54.09684
2019-02-25 10:30:00+00:00,229.5447,-1.15,12.65,47.84626,-54.09684
2019-02-25 10:40:00+00:00,234.1714,-1.2,13.13,47.84626,-54.09684
2019-02-25 10:50:00+00:00,224.7214,-1.2,15.35,47.84626,-54.09684
2019-02-25 11:00:00+00:00,218.6347,-1.2,13.92,47.84626,-54.09684
2019-02-25 11:10:00+00:00,230.8164,-1.2,13.76,47.84626,-54.09684
2019-02-25 11:20:00+00:00,251.0381,-1.2,13.76,47.84626,-54.09684
2019-02-25 11:30:00+00:00,260.188,-1.2,13.68,47.84626,-54.09684
2019-02-25 11:40:00+00:00,254.1181,-1.2,13.68,47.84626,-54.09684
2019-02-25 11:50:00+00:00,253.4832,-1.2,13.68,47.84626,-54.09684
2019-02-25 12:00:00+00:00,247.1664,-1.2,13.6,47.84626,-54.09684
2019-02-25 12:10:00+00:00,243.0081,-1.2,13.44,47.84626,-54.09684
2019-02-25 12:20:00+00:00,253.3447,-1.2,13.53,47.84626,-54.09684
2019-02-25 12:30:00+00:00,260.9131,-1.2,13.53,47.84626,-54.09684
2019-02-25 12:40:00+00:00,254.2747,-1.2,13.53,47.84626,-54.09684
2019-02-25 12:50:00+00:00,265.2981,-1.2,13.6,47.84626,-54.09684
2019-02-25 13:00:00+00:00,276.5048,-1.2,13.44,47.84626,-54.09684
2019-02-25 13:10:00+00:00,272.3047,-1.21,13.37,47.84626,-54.09684
2019-02-25 13:20:00+00:00,270.6647,-1.2,13.44,47.84626,-54.09684
2019-02-25 13:30:00+00:00,287.9547,-1.21,13.44,47.84626,-54.09684
2019-02-25 13:40:00+00:00,299.653,-1.21,13.44,47.84626,-54.09684
2019-02-25 13:50:00+00:00,313.5447,-1.21,13.44,47.84626,-54.09684
2019-02-25 14:00:00+00:00,323.6963,-1.21,13.37,47.84626,-54.09684
2019-02-25 14:10:00+00:00,324.8979,-1.27,13.29,47.84626,-54.09684
2019-02-25 14:20:00+00:00,313.0731,-1.28,13.29,47.84626,-54.09684
2019-02-25 14:30:00+00:00,326.3264,-1.3,13.29,47.84626,-54.09684
2019-02-25 14:40:00+00:00,344.3979,-1.3,13.29,47.84626,-54.09684
2019-02-25 14:50:00+00:00,351.563,-1.3,13.29,47.84626,-54.09684
2019-02-25 15:00:00+00:00,348.3213,-1.3,13.37,47.84626,-54.09684
2019-02-25 15:10:00+00:00,344.3862,-1.3,13.29,47.84626,-54.09684
2019-02-25 15:20:00+00:00,351.2664,-1.32,13.29,47.84626,-54.09684
2019-02-25 15:30:00+00:00,350.9596,-1.33,13.29,47.84626,-54.09684
2019-02-25 15:40:00+00:00,357.0312,-1.33,13.37,47.84626,-54.09684
2019-02-25 15:50:00+00:00,368.5579,-1.3,13.44,47.84626,-54.09684
2019-02-25 16:00:00+00:00,367.858,-1.3,13.37,47.84626,-54.09684
2019-02-25 16:10:00+00:00,363.4246,-1.3,13.29,47.84626,-54.09684
2019-02-25 16:20:00+00:00,365.3229,-1.3,13.37,47.84626,-54.09684
2019-02-25 16:30:00+00:00,368.043,-1.2,13.37,47.84626,-54.09684
2019-02-25 16:40:00+00:00,363.3512,-1.14,13.44,47.84626,-54.09684
2019-02-25 16:50:00+00:00,358.9696,-1.12,13.53,47.84626,-54.09684
2019-02-25 17:00:00+00:00,355.3063,-1.11,13.44,47.84626,-54.09684
2019-02-25 17:10:00+00:00,358.5979,-1.1,13.37,47.84626,-54.09684
2019-02-25 17:20:00+00:00,349.0613,-1.1,13.44,47.84626,-54.09684
2019-02-25 17:30:00+00:00,353.7196,-1.1,13.53,47.84626,-54.09684
2019-02-25 17:40:00+00:00,366.1896,-1.1,13.6,47.84626,-54.09684
2019-02-25 17:50:00+00:00,366.2263,-1.09,13.68,47.84626,-54.09684
2019-02-25 18:00:00+00:00,358.7679,-1.1,13.6,47.84626,-54.09684
2019-02-25 18:10:00+00:00,349.6496,-1.1,13.44,47.84626,-54.09684
2019-02-25 18:20:00+00:00,348.098,-1.07,13.53,47.84626,-54.09684
2019-02-25 18:30:00+00:00,338.5513,-1.09,13.53,47.84626,-54.09684
2019-02-25 18:40:00+00:00,335.7897,-1.1,13.53,47.84626,-54.09684
2019-02-25 18:50:00+00:00,337.8879,-1.07,13.53,47.84626,-54.09684
2019-02-25 19:00:00+00:00,324.3347,-1.1,13.44,47.84626,-54.09684
2019-02-25 19:10:00+00:00,313.478,-1.2,13.29,47.84626,-54.09684
2019-02-25 19:20:00+00:00,304.5697,-1.13,13.37,47.84626,-54.09684
2019-02-25 19:30:00+00:00,300.7547,-1.1,13.29,47.84626,-54.09684
2019-02-25 19:40:00+00:00,292.9997,-1.1,13.29,47.84626,-54.09684
2019-02-25 19:50:00+00:00,285.993,-1.1,13.29,47.84626,-54.09684
2019-02-25 20:00:00+00:00,278.4047,-1.04,13.21,47.84626,-54.09684
2019-02-25 20:10:00+00:00,269.178,-1.2,13.05,47.84626,-54.09684
2019-02-25 20:20:00+00:00,261.4364,-1.12,13.05,47.84626,-54.09684
2019-02-25 20:30:00+00:00,251.0948,-1.1,13.05,47.84626,-54.09684
2019-02-25 20:40:00+00:00,238.6847,-1.13,13.05,47.84626,-54.09684
2019-02-25 20:50:00+00:00,237.8531,-1.2,13.05,47.84626,-54.09684
2019-02-25 21:00:00+00:00,242.4114,-1.2,12.97,47.84626,-54.09684
2019-02-25 21:10:00+00:00,237.7481,-1.23,12.81,47.84626,-54.09684
2019-02-25 21:20:00+00:00,227.9614,-1.2,12.89,47.84626,-54.09684
2019-02-25 21:30:00+00:00,228.5931,-1.2,12.89,47.84626,-54.09684
2019-02-25 21:40:00+00:00,232.2081,-1.2,12.89,47.84626,-54.09684
2019-02-25 21:50:00+00:00,227.4348,-1.19,12.89,47.84626,-54.09684
2019-02-25 22:00:00+00:00,228.5847,-1.1,12.81,47.84626,-54.09684
2019-02-25 22:10:00+00:00,242.3114,-1.0,12.73,47.84626,-54.09684
2019-02-25 22:20:00+00:00,237.2048,-1.0,12.81,47.84626,-54.09684
2019-02-25 22:30:00+00:00,222.3981,-1.0,12.81,47.84626,-54.09684
2019-02-25 22:40:00+00:00,223.8231,-0.98,12.81,47.84626,-54.09684
2019-02-25 22:50:00+00:00,239.9597,-0.97,12.81,47.84626,-54.09684
2019-02-25 23:00:00+00:00,245.0214,-0.93,12.73,47.84626,-54.09684
2019-02-25 23:10:00+00:00,235.2297,-0.9,12.65,47.84626,-54.09684
2019-02-25 23:20:00+00:00,234.1381,-0.9,12.73,47.84626,-54.09684
2019-02-25 23:30:00+00:00,237.8315,-0.9,12.73,47.84626,-54.09684
2019-02-25 23:40:00+00:00,235.4398,-0.83,12.73,47.84626,-54.09684
2019-02-25 23:50:00+00:00,237.0131,-0.8,12.81,47.84626,-54.09684
